This demonstration page uses our WeatherBlox Daily Observations layout. Learn more.

Left ArrowRight Arrow

34.16533, -84.80231

Hourly Observations for October 19, 2021

Temp ( °F °C ) Dew Point ( °F °C ) Humidity (%) Winds ( mph kmh ) Pressure ( in mb ) Visibility ( mi km ) Precip ( " mm )
12:15 am 00:15 Clear 48 9 48 9 100 100 N N/A 30.21 1023 9 14 N/A
12:35 am 00:35 Clear 48 9 46 8 94 94 N N/A 30.21 1023 9 14 N/A
12:55 am 00:55 Clear 48 9 46 8 94 94 N N/A 30.21 1023 9 14 N/A
1:15 am 01:15 Clear 48 9 46 8 94 94 N N/A 30.21 1023 9 14 N/A
1:35 am 01:35 Clear 46 8 46 8 100 100 N N/A 30.22 1023 8 13 N/A
1:55 am 01:55 Clear 46 8 46 8 100 100 N N/A 30.22 1023 9 14 N/A
2:15 am 02:15 Mostly Clear 46 8 45 7 93 93 N N/A 30.22 1023 9 14 N/A
2:35 am 02:35 Mostly Clear 46 8 45 7 93 93 N N/A 30.22 1023 10 16 N/A
2:55 am 02:55 Clear 45 7 45 7 100 100 N N/A 30.22 1023 9 14 N/A
3:15 am 03:15 Mostly Clear 45 7 45 7 100 100 N N/A 30.22 1023 9 14 N/A
3:35 am 03:35 Mostly Cloudy with Mist and Fog 45 7 45 7 100 100 N N/A 30.22 1023 6 10 N/A
3:55 am 03:55 Cloudy with Mist and Fog 45 7 45 7 100 100 N N/A 30.22 1023 3 5 N/A
4:15 am 04:15 Cloudy with Mist and Fog 45 7 45 7 100 100 N N/A 30.22 1023 6 10 N/A
4:35 am 04:35 Cloudy with Mist and Fog 45 7 45 7 100 100 N N/A 30.22 1023 1 1 N/A
4:55 am 04:55 Mostly Cloudy with Fog 45 7 45 7 100 100 N N/A 30.22 1023 0 0 N/A
5:15 am 05:15 Cloudy with Mist and Fog 43 6 43 6 100 100 N N/A 30.22 1023 1 2 N/A
5:35 am 05:35 Cloudy with Mist and Fog 43 6 43 6 100 100 N N/A 30.23 1024 3 4 N/A
5:55 am 05:55 Cloudy with Fog 43 6 43 6 100 100 N N/A 30.24 1024 0 0 N/A
6:15 am 06:15 Cloudy with Fog 43 6 43 6 100 100 N N/A 30.25 1024 0 0 N/A
6:35 am 06:35 Cloudy with Fog 43 6 43 6 100 100 N N/A 30.25 1024 0 0 N/A
6:55 am 06:55 Cloudy with Fog 43 6 43 6 100 100 N N/A 30.26 1025 N/A N/A
7:15 am 07:15 Cloudy with Fog 43 6 43 6 100 100 N N/A 30.26 1025 0 0 N/A
7:35 am 07:35 Cloudy with Fog 43 6 43 6 100 100 N N/A 30.26 1025 0 0 N/A
7:55 am 07:55 Cloudy with Fog 43 6 43 6 100 100 N N/A 30.27 1025 0 0 N/A
8:15 am 08:15 Cloudy with Fog 43 6 43 6 100 100 N N/A 30.27 1025 0 0 N/A
8:35 am 08:35 Cloudy with Fog 43 6 43 6 100 100 N N/A 30.28 1025 0 0 N/A
8:55 am 08:55 Cloudy with Fog 43 6 43 6 100 100 N N/A 30.29 1026 N/A N/A
9:15 am 09:15 Cloudy with Fog 45 7 45 7 100 100 N N/A 30.30 1026 0 0 N/A
9:35 am 09:35 Cloudy with Light Rain 46 8 46 8 100 100 N N/A 30.31 1026 1 1 N/A
9:55 am 09:55 Cloudy with Fog 46 8 46 8 100 100 N N/A 30.31 1026 N/A N/A
10:15 am 10:15 Cloudy with Fog 48 9 48 9 100 100 N N/A 30.30 1026 N/A N/A
10:35 am 10:35 Partly Cloudy 50 10 50 10 100 100 N N/A 30.30 1026 8 13 N/A
10:55 am 10:55 Sunny 54 12 52 11 94 94 N N/A 30.29 1026 9 14 N/A
11:15 am 11:15 Sunny 55 13 50 10 82 82 N N/A 30.29 1026 10 16 N/A
11:35 am 11:35 Sunny 59 15 50 10 72 72 N N/A 30.29 1026 10 16 N/A
11:55 am 11:55 Sunny 61 16 52 11 72 72 N N/A 30.27 1025 10 16 N/A
12:15 pm 12:15 Sunny 63 17 52 11 68 68 N N/A 30.27 1025 10 16 N/A
12:35 pm 12:35 Sunny 66 19 52 11 60 60 N N/A 30.25 1025 10 16 N/A
12:55 pm 12:55 Sunny 68 20 50 10 53 53 N N/A 30.25 1024 10 16 N/A
1:15 pm 13:15 Sunny 68 20 50 10 53 53 N N/A 30.24 1024 10 16 N/A
1:35 pm 13:35 Hazy 70 21 48 9 46 46 W 5 7 30.23 1024 4 6 N/A
1:55 pm 13:55 Sunny with Light Rain 70 21 46 8 43 43 N N/A 30.23 1024 1 2 N/A
2:15 pm 14:15 Hazy 70 21 46 8 43 43 N N/A 30.22 1023 3 5 N/A
2:35 pm 14:35 Hazy 70 21 46 8 43 43 N N/A 30.21 1023 4 6 N/A
2:55 pm 14:55 Hazy 72 22 46 8 41 41 N N/A 30.20 1023 2 2 N/A
3:15 pm 15:15 Sunny with Light Rain 72 22 46 8 41 41 N N/A 30.19 1022 2 2 N/A
3:35 pm 15:35 Sunny 73 23 46 8 38 38 N N/A 30.18 1022 8 13 N/A
3:55 pm 15:55 Sunny 72 22 46 8 41 41 N N/A 30.19 1022 10 16 N/A
4:15 pm 16:15 Hazy 73 23 46 8 38 38 VRB 3 6 30.18 1022 5 8 N/A
4:35 pm 16:35 Hazy 73 23 46 8 38 38 N N/A 30.18 1022 6 10 N/A
4:55 pm 16:55 Sunny 73 23 46 8 38 38 N N/A 30.17 1022 8 13 N/A
5:15 pm 17:15 Sunny 72 22 46 8 41 41 N N/A 30.18 1022 7 11 N/A
5:35 pm 17:35 Sunny 73 23 46 8 38 38 N N/A 30.17 1022 9 14 N/A
5:55 pm 17:55 Sunny 73 23 46 8 38 38 N N/A 30.17 1022 10 16 N/A
6:15 pm 18:15 Sunny 72 22 48 9 44 44 N N/A 30.18 1022 10 16 N/A
6:35 pm 18:35 Sunny 68 20 50 10 53 53 N N/A 30.18 1022 8 13 N/A
6:55 pm 18:55 Sunny 66 19 55 13 68 68 N N/A 30.18 1022 8 13 N/A
7:15 pm 19:15 Clear 63 17 54 12 73 73 N N/A 30.19 1022 10 16 N/A
7:35 pm 19:35 Mostly Clear 61 16 55 13 83 83 N N/A 30.20 1023 9 14 N/A
7:55 pm 19:55 Mostly Cloudy 61 16 55 13 83 83 N N/A 30.21 1023 10 16 N/A
8:15 pm 20:15 Mostly Cloudy 59 15 55 13 88 88 N N/A 30.22 1023 10 16 N/A
8:35 pm 20:35 Cloudy 57 14 55 13 94 94 N N/A 30.22 1023 10 16 N/A
8:55 pm 20:55 Cloudy 57 14 55 13 94 94 N N/A 30.23 1024 10 16 N/A
9:15 pm 21:15 Cloudy 57 14 55 13 94 94 N N/A 30.23 1024 9 14 N/A
9:35 pm 21:35 Cloudy 55 13 54 12 94 94 N N/A 30.23 1024 10 16 N/A
9:55 pm 21:55 Cloudy 55 13 54 12 94 94 N N/A 30.24 1024 10 16 N/A
10:15 pm 22:15 Cloudy 55 13 54 12 94 94 N N/A 30.24 1024 9 14 N/A
10:35 pm 22:35 Cloudy 55 13 54 12 94 94 N N/A 30.24 1024 9 14 N/A
10:55 pm 22:55 Mostly Cloudy 54 12 52 11 94 94 N N/A 30.24 1024 10 16 N/A
11:15 pm 23:15 Mostly Cloudy 54 12 52 11 94 94 N N/A 30.24 1024 8 13 N/A
11:35 pm 23:35 Partly Cloudy 54 12 54 12 100 100 N N/A 30.24 1024 8 13 N/A
11:55 pm 23:55 Clear 54 12 52 11 94 94 N N/A 30.25 1025 8 13 N/A

Powered by AerisWeather